Location: Unspecified
(35.6961°N, 0.0000°E)
Time: 21:36:36
(UTC+00:00)

Altair - Pass Details

Date: 26 May 2019
Orbit: 1501 x 1683 km, 47.2° (Epoch: 19 June)

Event Time Altitude Azimuth Distance (km) Brightness Sun altitude
Rises 08:15:38 0° 301° (WNW) 4,937 9.8 39.9°
Reaches altitude 10° 08:18:53 10° 305° (NW) 3,941 9.4 40.5°
Maximum altitude 08:28:58 65° 27° (NNE) 1,785 8.8 42.6°
Drops below altitude 10° 08:38:42 10° 108° (ESE) 3,822 10.6 44.5°
Sets 08:41:48 0° 111° (ESE) 4,781 10.8 45.2°
